[[{"header":{"parameterUnit":"m.s-1","parameterCategory":1,"la1":30.2991,"la2":30.254,"lo1":-89.0895,"lo2":-89.0444,"dy":0.0017,"dx":0.0017,"nx":28,"ny":28,"refTime":"2025-07-16T21:00:00:Z","depth":0,"parameterNumber":2,"parameterNumberName":"U-component_of_WINDS"},"data":[0,0,0,0,0,0,0,0,0,0,0,0,0,0,0,0,0,0,0,0,0,0,0,0,0,0,0,0,0,0,0,0,0,0,0,0,0,0,0,0,0,0,0,0,0,0,0,0,0,0,0,0,0,0,0,0,0,0,-0.0101,-0.0102,0,-0.0149,-0.0149,-0.015,-0.0299,-0.0302,-0.0306,-0.0309,-0.035,-0.0348,-0.0346,0,0,0,0,0,0,0,0,0,0,0,0,0,-0.0133,-0.0131,-0.0101,-0.0102,-0.0102,-0.0149,-0.0149,-0.015,-0.0298,-0.0302,-0.0306,-0.031,-0.0351,-0.0349,-0.0346,0,0,0,0,0,0,0,0,0,0,0,0,0,-0.0143,-0.0131,-0.0101,-0.0182,-0.019,-0.0149,-0.0149,-0.015,-0.0298,-0.0303,-0.0307,-0.0312,-0.0352,-0.0349,-0.0346,-0.0228,0,0,-0.0337,-0.0336,0,0,0,0,0,0,0,0,-0.0142,-0.0142,-0.017,-0.0176,-0.0185,-0.0223,-0.0176,-0.0176,-0.0296,-0.0256,-0.0309,-0.0315,-0.0304,-0.0305,-0.0303,-0.023,-0.0232,-0.0337,-0.0335,-0.0334,-0.0333,0,0,0,0,0,0,0,-0.0141,-0.0141,-0.012,-0.017,-0.0179,-0.0214,-0.0221,-0.0177,-0.0251,-0.026,-0.0271,-0.0275,-0.0309,-0.0305,-0.0305,-0.0232,-0.0337,-0.0334,-0.0332,-0.0331,-0.0067,-0.0062,0,0,0,0,0,0,-0.013,-0.0139,-0.0118,-0.0121,-0.0176,-0.021,-0.0217,-0.0206,-0.0252,-0.0264,-0.0271,-0.0282,-0.0308,-0.0308,-0.0307,-0.0173,-0.0334,-0.0331,-0.0329,-0.0072,-0.0065,-0.006,0,0,0,0,0,0,-0.013,-0.0127,-0.0116,-0.0133,-0.0135,-0.0204,-0.0189,-0.0204,-0.0201,-0.026,-0.0274,-0.0254,-0.0312,-0.0311,-0.0247,-0.0177,-0.0329,-0.0327,-0.0078,-0.007,-0.0063,0.0096,0,0,0,0,0,0,-0.013,-0.0126,-0.0083,-0.0131,-0.0133,-0.0057,-0.0185,-0.0201,-0.0196,-0.0211,-0.0248,-0.0259,-0.0316,-0.0251,-0.0244,-0.0175,-0.0324,-0.0085,-0.0074,-0.0065,0.0084,0.0109,0.0129,0,0,0,0,0,-0.0131,-0.0034,-0.008,-0.0077,-0.0081,-0.0053,-0.0054,-0.0123,-0.019,-0.0147,-0.0185,-0.0258,-0.0185,-0.0243,-0.0237,-0.0166,-0.0089,-0.0077,-0.0066,0.0074,0.0104,0.0129,0,0,0,0,0,0,0.0027,-0.0042,-0.0094,-0.001,-0.0025,-0.0078,-0.0026,-0.0089,-0.0084,-0.0098,-0.0182,-0.0189,-0.0113,-0.0133,-0.0196,-0.0055,-0.0149,-0.0136,-0.0045,-0.0017,0.0005,0.0007,-0.0322,0,0,0,0,0,0.0071,0.0097,0.0037,0.0116,0.0111,0.0044,0.0054,0.0002,-0.0016,-0.0022,-0.0056,-0.0068,-0.0049,-0.0034,-0.0019,0.0081,0.0071,0.0133,0.0155,0.0174,0.0187,0.0237,0.0264,-0.0021,-0.0021,-0.0021,0,0,0.0163,0.0128,0.0151,0.0147,0.0129,0.016,0.004,0.0078,0.0101,-0.0016,0.0041,0.0016,-0.0003,0.0079,0.0113,0.0065,0.0263,0.0189,0.0205,0.0207,0.0252,0.0279,0.0303,-0.0013,-0.0014,-0.0016,0,0,0.0346,0.0323,0.0385,0.0369,0.0343,0.0298,0.0313,0.0269,0.0247,0.0302,0.0215,0.0242,0.0278,0.0267,0.0266,0.0444,0.0377,0.0452,0.0569,0.0619,0.0641,0.066,0.0723,0.0746,0.0464,0.0465,0.0465,0,0.0464,0.0505,0.0426,0.0469,0.047,0.0363,0.0427,0.0416,0.0398,0.0402,0.0347,0.0388,0.0368,0.0445,0.0488,0.0491,0.0506,0.0455,0.0644,0.0662,0.0679,0.0738,0.0762,0.0474,0.0473,0.0472,0.0471,0,0.0651,0.0681,0.0735,0.0716,0.0723,0.0777,0.0708,0.0725,0.0672,0.0633,0.0691,0.0662,0.0669,0.0684,0.0634,0.0754,0.0724,0.0658,0.0561,0.0717,0.077,0.0792,0.0487,0.0484,0.0481,0.0479,0,0,0.0932,0.0867,0.0888,0.0878,0.0841,0.0863,0.0912,0.0916,0.0932,0.0923,0.0962,0.0994,0.0932,0.0931,0.0879,0.0924,0.1065,0.0851,0.085,0.0891,0.1194,0.1243,0.127,0.102,0.1024,0.1028,0.1195,0,0.1103,0.118,0.1111,0.1202,0.1228,0.1127,0.117,0.1153,0.1118,0.1137,0.1099,0.1122,0.1039,0.1038,0.1077,0.1039,0.1124,0.1026,0.1057,0.1059,0.1063,0.1298,0.135,0.151,0.1216,0.1219,0.1222,0,0.1314,0.1311,0.1404,0.1359,0.1368,0.1407,0.1404,0.1423,0.1402,0.1373,0.1372,0.1307,0.1354,0.126,0.1322,0.1257,0.1266,0.1249,0.1254,0.1253,0.1149,0.1303,0.1559,0.1583,0.1254,0.1252,0.1249,0,0.1507,0.1527,0.1584,0.1579,0.1529,0.1559,0.154,0.1513,0.1519,0.1518,0.1521,0.1527,0.153,0.1536,0.1475,0.1412,0.1545,0.1447,0.1523,0.1525,0.1555,0.1554,0.1815,0.1564,0.1563,0.1563,0.1562,0,0.1705,0.1766,0.167,0.1706,0.1771,0.1692,0.1759,0.173,0.1707,0.1736,0.1651,0.168,0.1598,0.162,0.1573,0.1631,0.1634,0.1613,0.1599,0.1619,0.1622,0.1623,0.161,0.1569,0.1568,0.1566,0.1565,0,0.1932,0.187,0.1926,0.1873,0.1861,0.1912,0.1867,0.1898,0.1857,0.1895,0.19,0.1837,0.1857,0.1797,0.181,0.1778,0.1862,0.1832,0.1868,0.1859,0.1938,0.1931,0.2208,0.224,0.197,0.1973,0.1975,0,0.2061,0.2105,0.2056,0.2068,0.2052,0.2074,0.2078,0.2003,0.2012,0.1991,0.2025,0.2038,0.2044,0.2082,0.2039,0.2048,0.2016,0.2112,0.2017,0.2035,0.2015,0.2013,0.2016,0.2132,0.2135,0.2138,0.214,0,0.2298,0.2264,0.2273,0.2272,0.228,0.2276,0.2267,0.2282,0.2201,0.2216,0.2234,0.2239,0.225,0.2264,0.2264,0.2246,0.218,0.2171,0.2188,0.2209,0.2228,0.2217,0.1921,0.2164,0.2162,0.216,0.2159,0.2158,0.2478,0.2511,0.2481,0.2494,0.2479,0.2472,0.2497,0.2459,0.2472,0.2473,0.2429,0.2457,0.2434,0.2426,0.2415,0.2436,0.2392,0.2419,0.2425,0.2432,0.2445,0.2226,0.2436,0.2435,0.2435,0.2434,0.2433,0,0.2708,0.2683,0.2696,0.2684,0.2694,0.2629,0.2615,0.2629,0.2654,0.2637,0.2644,0.2666,0.2679,0.2636,0.2643,0.2669,0.2639,0.2673,0.267,0.2667,0.2485,0.2468,0.2697,0.2697,0.2697,0.2697,0.2697,0.2697,0.2829,0.2881,0.2845,0.2889,0.2864,0.2888,0.2886,0.2879,0.2865,0.2892,0.2901,0.2872,0.2846,0.285,0.286,0.2847,0.2853,0.2898,0.2875,0.2705,0.268,0.2655,0.2638,0.29,0.29,0.3054,0.3055,0.3057]},{"header":{"parameterUnit":"m.s-1","parameterCategory":1,"la1":30.2991,"la2":30.254,"lo1":-89.0895,"lo2":-89.0444,"dy":0.0017,"dx":0.0017,"nx":28,"ny":28,"refTime":"2025-07-16T21:00:00:Z","depth":0,"parameterNumber":3,"parameterNumberName":"V-component_of_WINDS"},"data":[0,0,0,0,0,0,0,0,0,0,0,0,0,0,0,0,0,0,0,0,0,0,0,0,0,0,0,0,0,0,0,0,0,0,0,0,0,0,0,0,0,0,0,0,0,0,0,0,0,0,0,0,0,0,0,0,0,0,3.747,3.7471,0,3.7551,3.7551,3.7552,3.7607,3.7607,3.7608,3.7608,3.7686,3.7688,3.769,0,0,0,0,0,0,0,0,0,0,0,0,0,3.7358,3.736,3.747,3.7471,3.7472,3.755,3.7552,3.7553,3.7607,3.7607,3.7608,3.7608,3.7686,3.7688,3.769,0,0,0,0,0,0,0,0,0,0,0,0,0,3.742,3.7361,3.747,3.7509,3.7513,3.755,3.7552,3.7553,3.7607,3.7608,3.7608,3.7609,3.7685,3.7687,3.769,3.7694,0,0,3.7698,3.7699,0,0,0,0,0,0,0,0,3.7416,3.7424,3.7502,3.7506,3.7511,3.757,3.7541,3.76,3.7607,3.7571,3.7608,3.7609,3.7647,3.7652,3.7666,3.7697,3.7701,3.7698,3.77,3.7701,3.7701,0,0,0,0,0,0,0,3.7412,3.742,3.7502,3.7503,3.7508,3.7521,3.753,3.7552,3.7604,3.7574,3.7578,3.7587,3.7649,3.7663,3.7668,3.7702,3.7698,3.77,3.7702,3.7703,3.7739,3.7738,0,0,0,0,0,0,3.7402,3.7417,3.7499,3.7504,3.7464,3.7522,3.7533,3.755,3.7604,3.7613,3.7587,3.759,3.7659,3.7665,3.7671,3.7678,3.7701,3.7703,3.7704,3.7739,3.7738,3.7738,0,0,0,0,0,0,3.7399,3.7409,3.7496,3.7462,3.7474,3.7523,3.7542,3.7551,3.7566,3.7614,3.7623,3.7592,3.7659,3.7668,3.7688,3.7682,3.7704,3.7706,3.774,3.7739,3.7738,3.7692,0,0,0,0,0,0,3.7396,3.7408,3.7411,3.7461,3.7475,3.7512,3.7542,3.7552,3.757,3.7575,3.7621,3.7629,3.7661,3.7684,3.769,3.7685,3.7708,3.7741,3.7739,3.7738,3.7695,3.769,3.7686,0,0,0,0,0,3.7392,3.7394,3.7411,3.742,3.748,3.7512,3.752,3.7557,3.757,3.7572,3.7603,3.7628,3.7681,3.7685,3.7693,3.7689,3.7741,3.774,3.7738,3.7696,3.7691,3.7686,0,0,0,0,0,0,3.734,3.7401,3.742,3.7439,3.747,3.7521,3.7526,3.755,3.7577,3.7579,3.7623,3.7633,3.7648,3.7671,3.7674,3.7695,3.7714,3.7714,3.7679,3.7675,3.767,3.7664,3.7711,0,0,0,0,0,3.7331,3.7353,3.7405,3.7416,3.7431,3.7475,3.749,3.7517,3.755,3.7563,3.7595,3.7625,3.7648,3.7663,3.7687,3.7698,3.7708,3.7699,3.7695,3.7691,3.7691,3.7697,3.7693,3.7734,3.7734,3.7734,0,0,3.7312,3.7348,3.7359,3.7407,3.7434,3.7454,3.7486,3.7506,3.7521,3.7565,3.7586,3.7611,3.7647,3.7662,3.7671,3.7682,3.7682,3.769,3.7686,3.7688,3.7695,3.7691,3.7688,3.7733,3.7733,3.7733,0,0,3.7287,3.7318,3.733,3.7357,3.7398,3.7427,3.743,3.7478,3.7496,3.7518,3.7551,3.7569,3.7609,3.7633,3.7651,3.7635,3.7658,3.7641,3.7619,3.7624,3.7621,3.7618,3.7612,3.7609,3.7641,3.7641,3.7641,0,3.7258,3.7292,3.7333,3.7352,3.7371,3.7413,3.7425,3.7448,3.7494,3.7505,3.7517,3.7568,3.7595,3.7616,3.7613,3.7626,3.7629,3.7636,3.7619,3.7616,3.7614,3.7608,3.7606,3.7638,3.7638,3.7639,3.7639,0,3.7253,3.7275,3.728,3.7325,3.7345,3.736,3.7402,3.7417,3.7441,3.7468,3.749,3.7524,3.7556,3.7563,3.7586,3.7587,3.7592,3.7611,3.7631,3.7608,3.7602,3.7601,3.7635,3.7636,3.7636,3.7637,0,0,3.7198,3.7266,3.7266,3.7287,3.7335,3.7352,3.7368,3.7401,3.7412,3.7442,3.7455,3.7488,3.7506,3.7525,3.7552,3.7557,3.754,3.7575,3.7576,3.7566,3.7542,3.7527,3.7523,3.7557,3.7556,3.7556,3.7538,0,3.718,3.7213,3.725,3.7269,3.729,3.733,3.7344,3.7374,3.74,3.742,3.7448,3.747,3.7492,3.7504,3.7511,3.7541,3.7536,3.7543,3.7568,3.7568,3.7557,3.7521,3.7505,3.7487,3.7537,3.7536,3.7536,0,3.7164,3.7193,3.7214,3.726,3.727,3.7282,3.7314,3.7333,3.7367,3.7386,3.7408,3.7436,3.7453,3.7472,3.7495,3.7499,3.7512,3.7527,3.7528,3.753,3.755,3.7522,3.7482,3.7478,3.7534,3.7534,3.7534,0,3.712,3.7164,3.7183,3.7199,3.7253,3.726,3.7283,3.7318,3.7335,3.7362,3.7373,3.7402,3.7417,3.7438,3.7472,3.7483,3.7492,3.7513,3.7506,3.7505,3.7505,3.7504,3.7466,3.7515,3.7515,3.7515,3.7515,0,3.7095,3.7106,3.7164,3.7175,3.7188,3.723,3.7242,3.7268,3.7298,3.7314,3.735,3.7364,3.7409,3.7428,3.7455,3.7469,3.7476,3.7491,3.7497,3.7487,3.7485,3.7495,3.7496,3.7514,3.7514,3.7515,3.7515,0,3.7048,3.7087,3.711,3.7159,3.7172,3.7179,3.7221,3.7232,3.7261,3.728,3.7287,3.7331,3.7354,3.7391,3.7425,3.7444,3.7453,3.7465,3.7442,3.7445,3.7436,3.7436,3.7401,3.7398,3.745,3.7449,3.7449,0,3.7029,3.7039,3.709,3.7103,3.7125,3.7147,3.7164,3.7206,3.7222,3.7261,3.7267,3.7294,3.7318,3.7353,3.7387,3.7413,3.7425,3.7412,3.7429,3.7418,3.7424,3.7422,3.7423,3.7407,3.7406,3.7405,3.7405,0,3.6992,3.701,3.7035,3.7066,3.7086,3.7112,3.714,3.7149,3.7196,3.7212,3.7237,3.7255,3.7291,3.7316,3.7347,3.7369,3.7394,3.7399,3.7399,3.7387,3.7373,3.7379,3.7429,3.74,3.74,3.7401,3.7401,3.7401,3.6957,3.6967,3.7005,3.703,3.7056,3.7081,3.7094,3.7124,3.7146,3.7179,3.7202,3.7225,3.7258,3.7302,3.7322,3.734,3.7351,3.7351,3.7351,3.7349,3.7345,3.7371,3.7346,3.7346,3.7346,3.7347,3.7347,0,3.692,3.6946,3.697,3.7008,3.7027,3.7052,3.7083,3.7097,3.7118,3.7147,3.717,3.7198,3.7223,3.7259,3.7286,3.7293,3.7305,3.7299,3.7298,3.7302,3.7334,3.7331,3.7288,3.7288,3.7288,3.7288,3.7288,3.7288,3.6903,3.6921,3.6944,3.6975,3.7,3.7024,3.704,3.7063,3.7086,3.7117,3.7138,3.7162,3.7193,3.7223,3.7246,3.7256,3.7263,3.7253,3.7266,3.7295,3.73,3.7305,3.7303,3.7255,3.7254,3.7233,3.7232,3.7232]}]]